Regional Weather Roundup
Issued by NWS

Home | Current Version | Previous Version | Graphics & Text | Print | Product List | Glossary On
Versions: 1 2 3 4 5 6 7 8 9 10 11 12 13 14 15 16 17 18 19 20 21 22 23 24 25 26 27 28 29 30 31 32 33 34 35 36 37 38 39 40 41 42 43 44 45 46 47 48 49 50
000
ASUS43 KMPX 241101
RWRMN
WEATHER ROUNDUP FOR MINNESOTA
NATIONAL WEATHER SERVICE TWIN CITIES/CHANHASSEN MN
600 AM CDT SUN MAY 24 2015


NOTE: "FAIR" INDICATES FEW OR NO CLOUDS BELOW 12,000 FEET WITH NO
SIGNIFICANT WEATHER AND/OR OBSTRUCTIONS TO VISIBILITY. N/A MEANS
CURRENT SKY AND/OR WEATHER CONDITIONS ARE NOT AVAILABLE.

MNZ060>063-068>070-241200-
   Twin Cities Metro

CITY           SKY/WX    TMP DP  RH WIND       PRES   REMARKS
TWIN CITIES    CLOUDY    61  48  62 E7        30.05F
ST PAUL        CLOUDY    60  48  64 CALM      30.07F
CRYSTAL        CLOUDY    60  49  66 E3        30.05F
BLAINE         CLOUDY    59  52  77 E6        30.06F
LAKEVILLE      CLOUDY    55  50  82 CALM      30.06F
EDEN PRAIRIE   CLOUDY    60  48  64 E6        30.04F
SOUTH ST PAUL  CLOUDY    61  47  59 CALM      30.06F
LAKE ELMO      FAIR      57  48  72 NE3       30.07F
$$
MNZ001>005-007-008-013>017-022>024-027-028-241200-
   Northwest Minnesota

CITY           SKY/WX    TMP DP  RH WIND       PRES   REMARKS
BEMIDJI        PTCLDY    44  40  87 CALM      30.12S
HALLOCK        CLEAR     48  45  87 CALM      30.07F
ROSEAU         CLEAR     46  43  87 CALM      30.10S
WARROAD        CLEAR     50  45  81 CALM      30.10F
THIEF RVR FALL CLEAR     46  43  87 SE3       30.11S
CROOKSTON      CLEAR     48  45  87 SE3       30.10S
FOSSTON        PTCLDY    45  39  81 CALM      30.11S
DETROIT LAKES  MOCLDY    54  46  76 CALM      30.09F
MOORHEAD       CLOUDY    54  48  82 NE3       30.08F
PARK RAPIDS    CLOUDY    55  47  74 NE5       30.10F
MAHNOMEN       PTSUNNY   52  46  79 SE5       30.10S
$$
MNZ006-009>011-018-025>026-241200-
   North Central Minnesota

CITY           SKY/WX    TMP DP  RH WIND       PRES   REMARKS
BAUDETTE       CLEAR     49  42  77 CALM      30.10S
FLAG ISLAND    CLEAR     59  45  58 W6        30.08S
INTL FALLS     CLEAR     43  40  89 CALM      30.11S
WASKISH        CLEAR     45  43  93 CALM      30.11S
BIG FORK       CLEAR     43  41  93 CALM      30.13S
LONGVILLE      CLOUDY    48  46  93 CALM      30.11F
GRAND RAPIDS   MOCLDY    45  39  81 CALM      30.14R
CRANE LAKE     PTCLDY    39  37  93 CALM      30.14F
ORR            CLEAR     41  37  87 CALM      30.10F
COOK           CLEAR     41  39  93 CALM      30.13S
WALKER         CLOUDY    44  43  95 CALM      30.12S
$$
MNZ012-019>021-037-241200-
   Northeast Minnesota

CITY           SKY/WX    TMP DP  RH WIND       PRES   REMARKS
DULUTH         MOCLDY    49  43  80 CALM      30.13F
ELY            PTCLDY    45  39  81 CALM      30.13F
HIBBING        PTCLDY    39  37  92 CALM      30.14S
EVELETH        FAIR      39  37  93 CALM      30.15S
DULUTH HARBOR  MOCLDY    54  46  76 CALM      30.13F
TWO HARBORS    MOCLDY    54  45  71 CALM      30.12S
GRAND MARAIS     N/A     52  41  66 W6        30.09F
G MARAIS ARPRT CLEAR     55  39  54 W5        30.14F
$$
MNZ029>031-032-039>041-046>048-054>057-064-241200-
   West Central Minnesota

CITY           SKY/WX    TMP DP  RH WIND       PRES   REMARKS
FERGUS FALLS   CLOUDY    61  46  59 E5        30.06F
WHEATON        CLOUDY    54  46  76 E3        30.05F
MORRIS         CLOUDY    57  48  72 E8        30.03F
ALEXANDRIA     CLOUDY    58  47  66 E6        30.07F
ELBOW LAKE     CLOUDY    59  47  64 E8        30.05F
WADENA         CLOUDY    55  46  71 NE5       30.07F
APPLETON       CLOUDY    59  48  67 E6        30.02F
BENSON         CLOUDY    59  48  67 E6        30.03F
ORTONVILLE     CLOUDY    57  48  72 E3        30.02F
MADISON        CLOUDY    57  50  77 CALM      30.02S
WILLMAR        FAIR      57  50  77 E6        30.05F
$$
MNZ033>034-036-042>043-049>051-058-059-241200-
   Central Minnesota

CITY           SKY/WX    TMP DP  RH WIND       PRES   REMARKS
ST CLOUD       CLOUDY    57  47  69 E7        30.05F
SAUK CENTRE    CLOUDY    57  47  69 E6        30.06F
PAYNESVILLE    CLOUDY    56  47  73 N3        30.06F
AITKIN         CLOUDY    54  46  76 CALM      30.09F
PINE RIVER     CLOUDY    54  48  82 N3        30.13F
BRAINERD       CLOUDY    57  47  69 CALM      30.09F
STAPLES        CLOUDY    55  46  71 NE3       30.08F
LONG PRAIRIE   RAIN      55  46  71 NE7       30.07F
LITTLE FALLS   CLOUDY    59  45  58 CALM      30.07F
LITCHFIELD     CLOUDY    55  52  88 E5        30.05F
BUFFALO        CLOUDY    59  47  65 E5        30.06F
MAPLE LAKE     CLOUDY    59  51  74 E6        30.05F
$$
MNZ037-044-045-052-053-241200-
   East Central Minnesota

CITY           SKY/WX    TMP DP  RH WIND       PRES   REMARKS
PRINCETON      CLOUDY    59  48  67 E5        30.07F
MORA           CLOUDY    55  45  67 CALM      30.11F
CAMBRIDGE      CLOUDY    63  48  59 CALM      30.06F
RUSH CITY      CLOUDY    58  49  71 E3        30.09F
MOOSE LAKE     CLOUDY    52  46  82 NE3       30.10F
HINCKLEY       CLOUDY    59  46  63 E5        30.10F
CLOQUET        MOCLDY    48  43  81 N6        30.13F
MCGREGOR       CLOUDY    52  48  87 CALM      30.12F
$$
MNZ071>073-080-081-089-090-097-098-241200-
   Southwest Minnesota

CITY           SKY/WX    TMP DP  RH WIND       PRES   REMARKS
MONTEVIDEO     CLOUDY    57  52  82 SE3       30.03F
GRANITE FALLS  CLOUDY    59  51  76 E3        30.03F
CANBY          LGT RAIN  54  51  91 CALM      30.02F
MARSHALL       CLOUDY    57  52  82 SE5       30.01S
REDWOOD FALLS  LGT RAIN  59  50  72 E7        30.01F
OLIVIA         CLOUDY    57  46  67 E3        30.02F
PIPESTONE      CLOUDY    57  55  94 E6        29.99F
WINDOM         CLOUDY    57  54  88 E6        30.01F
WORTHINGTON    CLOUDY    57  54  88 E7        30.00F
JACKSON        LGT RAIN  59  55  88 E8        30.01F
TRACY          DRIZZLE   60  57  91 E6        30.01F
SLAYTON        DRIZZLE   58  58 100 CALM      30.01F
$$
MNZ065>067-074>077-082>085-091>093-241200-
   South Central Minnesota

CITY           SKY/WX    TMP DP  RH WIND       PRES   REMARKS
MANKATO        CLOUDY    61  52  72 SE8       30.04F
NEW ULM        CLOUDY    61  50  67 E7        30.02F
ST JAMES       LGT RAIN  61  55  82 E8        30.03F
FAIRMONT       CLOUDY    57  52  82 SE8       30.02F
GLENCOE        CLOUDY    60  51  71 E7        30.03F
FARIBAULT      CLOUDY    57  54  88 CALM      30.05F
OWATONNA       CLOUDY    61  50  67 SE6       30.05F
WASECA         CLOUDY    59  50  72 CALM      30.06F
ALBERT LEA     CLOUDY    63  52  67 SE8       30.06S
$$
MNZ078>079-086>088-094>096-241200-
   Southeast Minnesota

CITY           SKY/WX    TMP DP  RH WIND       PRES   REMARKS
ROCHESTER      CLOUDY    59  50  72 SE7       30.09S
RED WING       CLOUDY    57  48  72 E3        30.06F
STANTON        CLOUDY    60  50  70 CALM      30.04F
DODGE CENTER   CLOUDY    61  50  67 SE6       30.07F
WINONA         CLOUDY    59  52  77 SE5       30.09F
AUSTIN         CLOUDY    63  50  63 S6        30.07S
PRESTON        CLOUDY    62  47  59 S9        30.09S
$$
ABBREVIATIONS USED IN REMARKS
   TC - TEMPERATURES IN CELSIUS
  WCI - WIND CHILL INDEX
   HX - HEAT INDEX
  VSB - VISIBILITY
$$



USA.gov is the U.S. government's official web portal to all federal, state and local government web resources and services.